Weather History for KMSS - October, 2012

Change the Weather History Date:

Saturday, October 27, 2012

  Actual Average Record
Temperature  
Mean Temperature 54 °F 42 °F  
Max Temperature 60 °F 52 °F 72 °F (1989)
Min Temperature 47 °F 33 °F 18 °F (1974)
Degree Days  
Heating Degree Days 11 23  
Month to date heating degree days 385 489  
Since 1 July heating degree days 602 789  
Cooling Degree Days 0 0  
Month to date cooling degree days 0 0  
Year to date cooling degree days 537 361  
Growing Degree Days 5 (Base 50)    
Moisture  
Dew Point 50 °F    
Average Humidity 78    
Maximum Humidity 93    
Minimum Humidity 62    
Precipitation  
Precipitation 0.00 in 0.11 in 1.57 in (1981)
Month to date precipitation 3.22 2.90  
Year to date precipitation 25.74 29.09  
Sea Level Pressure  
Sea Level Pressure 30.04 in    
Wind  
Wind Speed 4 mph (NNW)    
Max Wind Speed 10 mph    
Max Gust Speed 13 mph    
Visibility 7 miles    
Events      
T = Trace of Precipitation, MM = Missing Value Source: NWS Daily Summary

Daily Weather History Graph

Daily Weather History Graph

Search for Another Location

Airport or City:

Trip Planner

Search our weather history database for the weather conditions in past years. The results will help you decide how hot, cold, wet, or windy it might be!

Date:

Astronomy

Oct. 27, 2012 Rise Set
Actual Time 7:31 AM EDT 5:54 PM EDT
Civil Twilight 7:01 AM EDT 6:24 PM EDT
Nautical Twilight 6:26 AM EDT 6:58 PM EDT
Astronomical Twilight 5:52 AM EDT 7:32 PM EDT
Moon 4:41 PM EDT (10/27) 5:20 AM EDT (10/27)
Length of Visible Light 11h 23m
Length of Day
10h 22m
Waxing Gibbous, 96% of the Moon is Illuminated
Oct 27
Waxing Gibbous
Oct 29
Full
Nov 6
Last Quarter
Nov 13
New
Nov 20
First Quarter

Hourly Weather History & Observations

Time (EDT) Temp. Dew Point Humidity Pressure Visibility Wind Dir Wind Speed Gust Speed Precip Events Conditions
12:02 AM 55.4 °F 51.8 °F 88% 30.10 in 10.0 mi West 6.9 mph - N/A   Mostly Cloudy
12:53 AM 55.9 °F 50.0 °F 80% 30.11 in 10.0 mi West 6.9 mph - N/A   Overcast
1:53 AM 55.9 °F 50.0 °F 80% 30.10 in 10.0 mi West 5.8 mph - N/A   Overcast
2:53 AM 57.0 °F 50.0 °F 77% 30.09 in 10.0 mi NW 6.9 mph - N/A   Overcast
3:53 AM 57.0 °F 48.0 °F 72% 30.09 in 10.0 mi North 6.9 mph - N/A   Overcast
4:53 AM 55.9 °F 46.0 °F 69% 30.08 in 10.0 mi Calm Calm - N/A   Overcast
5:53 AM 55.0 °F 44.1 °F 67% 30.09 in 10.0 mi NW 4.6 mph - N/A   Overcast
6:53 AM 54.0 °F 44.1 °F 69% 30.07 in 10.0 mi Calm Calm - N/A   Overcast
7:53 AM 54.0 °F 45.0 °F 72% 30.09 in 10.0 mi Calm Calm - N/A   Overcast
8:53 AM 54.0 °F 48.0 °F 80% 30.09 in 10.0 mi Calm Calm - N/A   Overcast
9:38 AM 53.6 °F 46.4 °F 77% 30.08 in 10.0 mi West 4.6 mph - N/A   Overcast
9:53 AM 55.0 °F 46.9 °F 74% 30.08 in 10.0 mi WNW 4.6 mph - N/A   Overcast
10:37 AM 55.4 °F 46.4 °F 72% 30.06 in 10.0 mi Variable 3.5 mph - N/A   Overcast
10:53 AM 59.0 °F 46.4 °F 63% 30.05 in 10.0 mi Calm Calm - N/A   Overcast
11:53 AM 59.0 °F 48.0 °F 67% 30.06 in 10.0 mi WNW 4.6 mph - N/A   Overcast
12:53 PM 60.1 °F 50.0 °F 69% 30.03 in 10.0 mi NNE 4.6 mph - N/A   Overcast
1:53 PM 60.1 °F 52.0 °F 75% 30.01 in 7.0 mi NNE 5.8 mph - N/A   Overcast
2:25 PM 60.8 °F 53.6 °F 77% 30.00 in 4.0 mi North 5.8 mph - N/A   Haze
2:32 PM 60.8 °F 53.6 °F 77% 29.99 in 4.0 mi North 4.6 mph - N/A   Haze
2:39 PM 60.8 °F 53.6 °F 77% 29.99 in 4.0 mi NNE 4.6 mph - N/A   Haze
2:53 PM 60.1 °F 53.1 °F 78% 30.00 in 3.0 mi NNE 4.6 mph - N/A   Haze
3:10 PM 60.8 °F 53.6 °F 77% 29.99 in 3.0 mi NE 3.5 mph - N/A   Haze
3:53 PM 60.1 °F 53.1 °F 78% 29.99 in 4.0 mi NNE 4.6 mph - N/A   Haze
4:44 PM 59.0 °F 53.6 °F 82% 29.99 in 2.5 mi NNE 4.6 mph - N/A   Haze
4:53 PM 57.9 °F 54.0 °F 87% 29.99 in 2.5 mi NNE 5.8 mph - N/A   Overcast
5:06 PM 57.2 °F 53.6 °F 88% 29.99 in 2.5 mi NNE 4.6 mph - N/A   Haze
5:22 PM 57.2 °F 53.6 °F 88% 29.99 in 2.5 mi NNE 3.5 mph - N/A   Haze
5:53 PM 55.9 °F 53.1 °F 90% 30.00 in 2.0 mi NE 4.6 mph - N/A   Overcast
6:06 PM 55.4 °F 53.6 °F 94% 29.99 in 3.0 mi NE 3.5 mph - N/A   Mostly Cloudy
6:53 PM 55.9 °F 53.1 °F 90% 30.00 in 3.0 mi Calm Calm - N/A   Overcast
7:01 PM 55.4 °F 53.6 °F 94% 30.00 in 3.0 mi Calm Calm - N/A   Overcast
7:53 PM 53.1 °F 50.0 °F 89% 30.01 in 8.0 mi West 6.9 mph - N/A   Overcast
8:53 PM 52.0 °F 48.9 °F 89% 30.01 in 8.0 mi WNW 4.6 mph - N/A   Overcast
9:53 PM 51.1 °F 48.0 °F 89% 30.02 in 10.0 mi WNW 8.1 mph - N/A   Overcast
10:53 PM 50.0 °F 46.9 °F 89% 30.03 in 10.0 mi WNW 10.4 mph - N/A   Overcast
11:53 PM 48.2 °F 46.4 °F 93% 30.04 in 9.0 mi West 8.1 mph - N/A   Overcast